Flag for Moldova Weather past 2 weeks in Tiraspol, Moldova

Now
37 °F

Passing clouds.


Feels Like: 34 °F
Forecast: 33 / 45 °F
Wind: 5 mph from North

Location: Chisinau International Airport

Current Time: Mar 6, 2015 at 6:24:02 AM

Latest Report: Mar 6, 2015 at 5:30 AM


Visibility: N/A

Pressure: 30.36 "Hg

Humidity: 60%

Dew point: 25 °F

Location of TiraspolLocation

Historic Weather in Tiraspol — Graph

°F

Tiraspol temperature yesterday

Maximum temperature yesterday: 48 °F (at 2:00 PM)
Minimum temperature yesterday: 30 °F (at 1:30 AM)
Average temperature yesterday: 40 °F

Past Weeks' High & Low Weather Summary

 TemperatureHumidityPressure
High55 °F (Feb 27, 3:30 PM)93% (Feb 20, 3:30 AM)30.39 "Hg (Feb 20, 3:30 AM)
Low18 °F (Feb 19, 5:00 AM)28% (Mar 4, 3:00 PM)29.77 "Hg (Mar 3, 1:30 AM)
Average41 °F75%30.04 "Hg
* Reported Feb 19 5:00 AM — Mar 6 5:00 AM, Tiraspol, Weather by CustomWeather, © 2015

Note: Actual official high and low records may vary slightly from our data, if they occured in-between our weather recording intervals... More about our weather records

Advertising

Tiraspol weather history for previous 24 hours

 ConditionsComfort  
Time TempWeatherWind HumidityBarometerVisibility
5:00 AM
Fri, Mar 6
37 °FPassing clouds.6 mph60%30.33 "HgN/A
4:30 AM37 °FPassing clouds.5 mph60%30.33 "HgN/A
4:00 AM37 °FPassing clouds.3 mph60%30.33 "HgN/A
3:30 AM37 °FPassing clouds.6 mph60%30.33 "HgN/A
3:00 AM39 °FPassing clouds.5 mph56%30.33 "HgN/A
2:30 AM39 °FClear.6 mph56%30.33 "Hg10 mi
2:00 AM39 °FClear.5 mph56%30.33 "Hg10 mi
1:30 AM39 °FClear.5 mph56%30.33 "Hg10 mi
1:00 AM37 °FClear.7 mph60%30.33 "Hg10 mi
12:30 AM39 °FClear.5 mph52%30.36 "Hg10 mi
12:00 AM39 °FClear.5 mph52%30.36 "Hg10 mi
11:30 PM
Thu, Mar 5
41 °FClear.2 mph49%30.36 "Hg10 mi
11:00 PM41 °FClear.6 mph49%30.36 "Hg10 mi
10:30 PM41 °FClear.6 mph49%30.33 "Hg10 mi
10:00 PM41 °FClear.6 mph49%30.33 "Hg10 mi
9:30 PM41 °FClear.7 mph45%30.33 "Hg10 mi
9:00 PM43 °FClear.7 mph42%30.33 "Hg10 mi
8:30 PM43 °FClear.6 mph42%30.33 "Hg10 mi
8:00 PM43 °FClear.6 mph46%30.33 "Hg10 mi
7:30 PM43 °FClear.3 mph46%30.33 "Hg10 mi
7:00 PM43 °FClear.3 mph42%30.33 "Hg10 mi
6:30 PM45 °FClear.3 mph39%30.30 "Hg10 mi
6:00 PM45 °FPassing clouds.5 mph42%30.30 "HgN/A
5:30 PM45 °FSunny.5 mph39%30.30 "Hg10 mi
5:00 PM46 °FSunny.5 mph34%30.30 "Hg10 mi
4:30 PM46 °FSunny.5 mph34%30.30 "Hg10 mi
4:00 PM46 °FPassing clouds.6 mph37%30.30 "HgN/A
3:30 PM46 °FPassing clouds.3 mph37%30.30 "HgN/A
3:00 PM46 °FPassing clouds.6 mph34%30.30 "HgN/A
2:30 PM46 °FPassing clouds.6 mph34%30.30 "HgN/A
2:00 PM48 °FPassing clouds.8 mph32%30.30 "HgN/A
1:30 PM46 °FPassing clouds.8 mph37%30.30 "HgN/A
1:00 PM46 °FPassing clouds.9 mph34%30.30 "HgN/A
12:30 PM46 °FPassing clouds.8 mph34%30.33 "HgN/A
12:00 PM46 °FPassing clouds.10 mph37%30.33 "HgN/A
11:30 AM45 °FPassing clouds.9 mph42%30.33 "HgN/A
11:00 AM45 °FPassing clouds.8 mph49%30.33 "HgN/A
10:30 AM43 °FPassing clouds.8 mph57%30.33 "HgN/A
10:00 AM41 °FPassing clouds.6 mph61%30.33 "HgN/A
9:30 AM39 °FSunny.3 mph75%30.33 "Hg10 mi
9:00 AM34 °FSunny.No wind81%30.33 "Hg10 mi
8:30 AM34 °FSunny.No wind81%30.30 "Hg10 mi
8:00 AM36 °FSunny.No wind75%30.30 "Hg10 mi
7:30 AM36 °FSunny.No wind75%30.30 "Hg10 mi
7:00 AM36 °FSunny.7 mph81%30.30 "Hg10 mi
6:30 AM36 °FClear.8 mph81%30.27 "Hg10 mi
Weather by CustomWeather, © 2015

See weather overviewHow to use our weather pages